User: anonymous   Login
Location: Poprad
(49.0500°N, 20.3000°E)
Time: 08:58:34
(UTC+02:00)
Language:

Oscar 11 - Orbit

View from above orbital plane
View from above orbital plane
View from above satellite
View from above satellite

Ground track
Ground track

The orbit data is extracted from the following two-line orbital elements,

1 14781U 84021B   24112.88614152  .00004888  00000-0  55940-3 0  9995
2 14781  97.7002  83.8751 0006384 260.3470  99.7025 14.86409100161129
Epoch (UTC): 21 April 2024 21:16:02
Eccentricity: 0.0006384
inclination: 97.7002°
perigee height: 605 km
apogee height: 613 km
right ascension of ascending node: 83.8751°
argument of perigee: 260.3470°
revolutions per day: 14.86409100
mean anomaly at epoch: 99.7025°
orbit number at epoch: 16112

The dashed part of the orbit path shows where the satellite is in the earth's shadow,  

DLR